COSMOS 2251 DEB, 33818

Orbit data source: Space-Track

COSMOS 2251 DEB, 33818 is space debris in LEO originally from a launch on Wed, 16 Jun 1993 UTC launched from the Plesetsk Missile And Space Complex (PKMTR). The debris from Iridium 33, an American commercial communications satellite, has been tracked extensively since its accidental collision with the defunct Russian satellite Cosmos 2251 in 2009. This event, occurring at high speed in low Earth orbit (LEO), generated thousands of pieces of space debris, significantly increasing the risk of further collisions. The Iridium 33 debris cloud has impacted space traffic management and orbital debris mitigation strategies, making it a subject of ongoing study in space situational awareness.

Loading next visibility...
Identifier
33818, 1993-036BK
Orbit
LEO
Country
Flag of CISCIS
Related business
Manufacturer
Unknown
Mission
Spacecraft
Bus & Motor
Unknown
Mass
Unknown
Launch date (UTC)
1993-06-16 (32 years ago)
Launch vehicle
Unknown
Launch site
Plesetsk Missile And Space Complex (PKMTR)
Object type
Payload
Rocket body
Debris
Shape & HBR
Unknown shape, 0.1 m
Radar Cross Section
Small (<0.1 m²)

Expand to show TLE details & history
Last TLE update: 10 hours ago

TLE from 10 hours ago
0 COSMOS 2251 DEB
1 33818U 93036BK  25300.36922279  .00040861  00000-0  26175-2 0  9996
2 33818  74.0767 261.7466 0031855 267.5938 213.4968 15.07926583891625
Epoch: 2025-10-27T08:51Z
TLE epoch observation values (Epoch: 2025-10-27T08:51:40.849Z)
Latitude
55.72317°
Longitude
-111.74736°
Altitude
569.881 km
Speed
7.572 km/s
True Right ascension
03h 48m 34s
True Declination
55° 33' 31"
Sunlit
Object was in full shadow at epoch
Visualization orbit readout
Latitude
Unknown
Longitude
Unknown
Altitude
Unknown
Speed
Unknown
Apparent Right ascension
Unknown
Apparent Declination
Unknown
Sunlit
N/A
Visualization observer readout
Local Sidereal Time
14:19:11
Azimuth
Unknown
Elevation
Unknown
Doppler factor
Unknown
Orbital elements
Apogee altitude
562.116 km
Perigee altitude
518.04 km
Semi-major axis
6,918.215 km
Eccentricity
0.00319
Inclination
74.0767°
RAAN
261.7466°
Arg. of periapsis
267.5938°
True anomaly
213.29601°
Mean anomaly
213.4968°
Eccentric anomaly
213.39634°
Mean motion
3.77183 °/min
Orbital period
95.44 mins
BSTAR
0.0026175
Loading maneuver chart data...
Computing Atmospheric mass density...

Documentation

Showing up to 5 results
|